Historique des mesures à Cassis (13260), France
Quotidien Résumé Janvier 31, 2018 Unités:  Métrique/US    US   Métrique
« Précédent (Jour)
Suivant (Jour) »
Quotidien Hebdomadaire Mensuel Annuel Période au choix
  Maximum: Minimum: Moyenne:
Température: 32 °F /  TemperatureC °C 45.1 °F /  7.3 °C 50 °F /  10 °C
Point de rosée: 32 °F /  DewpointC °C 39.4 °F /  4.1 °C 42.4 °F /  5.8 °C
Humidité: Humidity % 64 % 71 %
Vitesse du vent: WindSpeedKMH mph /  0 km/h - 1.5 mph /  2.4 km/h
Rafales: WindSpeedGustKMH mph /  0 km/h - -
Vent:- - West
Pression: 0 in /  PressurehPa hPa 29.9 in /  1013.4 hPa -
Précipitations: 0 in /  0.0 mm    
Historical Graphs
 
 
Mesures pour : Janvier 31, 2018
Heure Temperature Point de rosée Pression Vent Vitesse du vent Rafales Humidité Pluie (par heure) Conditions
32 °F /  TemperatureC °C 32 °F /  DewpointC °C 0 in /  PressurehPa hPa Calm     Humidity % 0 in /  HourlyPrecipMM mm SoftwareType W/m2
00:12 50.7 °F /  10.4 °C 43.3 °F /  6.3 °C 30.2 in /  1023.2 hPa Calm     76 % 0 in /  0.0 mm open2300-1.11 W/m2
01:12 50.5 °F /  10.3 °C 43.2 °F /  6.2 °C 30.2 in /  1023.2 hPa NW 3.2 mph /  5.1 km/h 3.5 mph /  5.6 km/h 76 % 0 in /  0.0 mm open2300-1.11 W/m2
02:12 48.7 °F /  9.3 °C 41.4 °F /  5.2 °C 30.2 in /  1022.6 hPa NNW 4.3 mph /  6.9 km/h 5.8 mph /  9.3 km/h 76 % 0 in /  0.0 mm open2300-1.11 W/m2
03:12 47.5 °F /  8.6 °C 40.8 °F /  4.9 °C 30.2 in /  1022.2 hPa Calm   7.9 mph /  12.7 km/h 78 % 0 in /  0.0 mm open2300-1.11 W/m2
04:12 47.7 °F /  8.7 °C 41.4 °F /  5.2 °C 30.2 in /  1021.6 hPa Calm     79 % 0 in /  0.0 mm open2300-1.11 W/m2
05:12 47.5 °F /  8.6 °C 41.4 °F /  5.2 °C 30.2 in /  1020.9 hPa Calm     79 % 0 in /  0.0 mm open2300-1.11 W/m2
06:12 46.9 °F /  8.3 °C 40.8 °F /  4.9 °C 30.2 in /  1020.9 hPa Calm     79 % 0 in /  0.0 mm open2300-1.11 W/m2
07:12 46.2 °F /  7.9 °C 40.1 °F /  4.5 °C 30.2 in /  1020.9 hPa Calm     79 % 0 in /  0.0 mm open2300-1.11 W/m2
08:12 45.1 °F /  7.3 °C 39.4 °F /  4.1 °C 30.2 in /  1021.2 hPa Calm     80 % 0 in /  0.0 mm open2300-1.11 W/m2
09:12 47.3 °F /  8.5 °C 41.5 °F /  5.3 °C 30.2 in /  1020.9 hPa Calm     80 % 0 in /  0.0 mm open2300-1.11 W/m2
10:12 50.5 °F /  10.3 °C 44.2 °F /  6.8 °C 30.1 in /  1020.5 hPa Calm   3.2 mph /  5.1 km/h 79 % 0 in /  0.0 mm open2300-1.11 W/m2
11:12 52.2 °F /  11.2 °C 45.9 °F /  7.7 °C 30.1 in /  1020.5 hPa South 3.2 mph /  5.1 km/h 3.2 mph /  5.1 km/h 79 % 0 in /  0.0 mm open2300-1.11 W/m2
12:12 54.7 °F /  12.6 °C 47.1 °F /  8.4 °C 30.1 in /  1020.2 hPa West 4.0 mph /  6.4 km/h 4.0 mph /  6.4 km/h 76 % 0 in /  0.0 mm open2300-1.11 W/m2
13:12 53.8 °F /  12.1 °C 43.9 °F /  6.6 °C 30.1 in /  1019.2 hPa NW 4.7 mph /  7.6 km/h 5.0 mph /  8 km/h 69 % 0 in /  0.0 mm open2300-1.11 W/m2
14:12 54 °F /  12.2 °C 43.2 °F /  6.2 °C 30.1 in /  1018.2 hPa West 3.2 mph /  5.1 km/h 4.0 mph /  6.4 km/h 67 % 0 in /  0.0 mm open2300-1.11 W/m2
15:12 54.1 °F /  12.3 °C 42.3 °F /  5.7 °C 30.1 in /  1017.8 hPa West 7.6 mph /  12.2 km/h 13.0 mph /  20.9 km/h 64 % 0 in /  0.0 mm open2300-1.11 W/m2
16:12 52.9 °F /  11.6 °C 42.3 °F /  5.7 °C 30 in /  1017.2 hPa NNW 1.4 mph /  2.3 km/h 13.0 mph /  20.9 km/h 67 % 0 in /  0.0 mm open2300-1.11 W/m2
17:12 52.7 °F /  11.5 °C 42.8 °F /  6.0 °C 30 in /  1016.1 hPa Calm     69 % 0 in /  0.0 mm open2300-1.11 W/m2
18:12 52.9 °F /  11.6 °C 43.3 °F /  6.3 °C 30 in /  1015.8 hPa Calm     70 % 0 in /  0.0 mm open2300-1.11 W/m2
19:12 52.9 °F /  11.6 °C 43.9 °F /  6.6 °C 30 in /  1015.5 hPa Calm     71 % 0 in /  0.0 mm open2300-1.11 W/m2
20:12 52.5 °F /  11.4 °C 43.9 °F /  6.6 °C 30 in /  1015.1 hPa NNE 3.5 mph /  5.6 km/h 3.5 mph /  5.6 km/h 72 % 0 in /  0.0 mm open2300-1.11 W/m2
21:12 52.7 °F /  11.5 °C 44.1 °F /  6.7 °C 29.9 in /  1014.1 hPa Calm     72 % 0 in /  0.0 mm open2300-1.11 W/m2
22:12 51.6 °F /  10.9 °C 43.3 °F /  6.3 °C 29.9 in /  1013.8 hPa Calm     73 % 0 in /  0.0 mm open2300-1.11 W/m2
23:12 51.6 °F /  10.9 °C 43.5 °F /  6.4 °C 29.9 in /  1013.4 hPa NW 2.1 mph /  3.4 km/h 2.1 mph /  3.4 km/h 74 % 0 in /  0.0 mm open2300-1.11 W/m2
Observations météo à CASSIS
WU-History script by Weather Underground - 1 mb